Total_Precipitation_Accumulation
0.56 0.65 0.54 0.36 0.28 0.27 0.28 0.26 0.26 0.32 0.41 0.47 0.44 0.38 0.36 0.40 0.49 0.59 0.69 0.78 0.86 0.85 0.85 0.77 0.66 0.59 0.59 0.50 0.49 0.53 0.57 0.58 0.56 0.59 0.54 0.49 0.47 0.44 0.41 0.32 0.27 0.19 0.18
1.02 1.10 0.95 0.57 0.35 0.27 0.21 0.18 0.23 0.32 0.41 0.45 0.40 0.35 0.36 0.43 0.52 0.64 0.78 0.97 1.07 1.02 0.90 0.75 0.61 0.55 0.52 0.48 0.49 0.47 0.46 0.49 0.51 0.56 0.56 0.48 0.42 0.38 0.36 0.34 0.28 0.25 0.28
0.92 1.04 0.83 0.44 0.24 0.17 0.14 0.18 0.30 0.39 0.41 0.40 0.40 0.44 0.55 0.64 0.73 0.84 0.88 1.01 1.04 0.94 0.84 0.72 0.59 0.52 0.51 0.51 0.53 0.51 0.40 0.37 0.46 0.50 0.51 0.45 0.38 0.30 0.24 0.27 0.29 0.39 0.44
0.52 0.67 0.53 0.29 0.18 0.13 0.12 0.17 0.22 0.23 0.24 0.32 0.44 0.61 0.72 0.79 0.82 0.87 0.85 0.82 0.81 0.74 0.66 0.56 0.53 0.56 0.55 0.48 0.44 0.41 0.36 0.32 0.33 0.34 0.34 0.32 0.28 0.23 0.19 0.21 0.27 0.39 0.49
0.42 0.53 0.41 0.24 0.15 0.08 0.05 0.06 0.09 0.15 0.21 0.29 0.41 0.50 0.49 0.52 0.64 0.69 0.67 0.65 0.59 0.55 0.49 0.36 0.35 0.45 0.49 0.43 0.35 0.30 0.26 0.25 0.21 0.17 0.15 0.16 0.15 0.13 0.11 0.14 0.21 0.37 0.48
0.35 0.47 0.41 0.29 0.16 0.07 0.04 0.03 0.07 0.11 0.14 0.19 0.24 0.23 0.19 0.18 0.22 0.27 0.31 0.33 0.32 0.32 0.30 0.27 0.29 0.33 0.33 0.29 0.27 0.23 0.17 0.15 0.14 0.12 0.08 0.07 0.07 0.06 0.08 0.14 0.21 0.37 0.54
0.34 0.42 0.42 0.35 0.23 0.15 0.07 0.06 0.07 0.08 0.10 0.12 0.10 0.08 0.08 0.07 0.06 0.06 0.09 0.14 0.12 0.11 0.12 0.14 0.18 0.20 0.18 0.14 0.12 0.11 0.10 0.07 0.06 0.07 0.05 0.04 0.03 0.03 0.05 0.12 0.24 0.50 0.76
0.27 0.38 0.43 0.38 0.32 0.28 0.16 0.11 0.09 0.10 0.13 0.17 0.13 0.08 0.06 0.04 0.02 0.03 0.03 0.04 0.04 0.03 0.04 0.04 0.07 0.12 0.11 0.06 0.04 0.04 0.03 0.02 0.02 0.02 0.02 0.02 0.01 0.02 0.03 0.06 0.12 0.28 0.51
0.21 0.34 0.41 0.39 0.34 0.30 0.24 0.18 0.16 0.19 0.18 0.19 0.17 0.13 0.09 0.05 0.01 0.01 0.01 0.03 0.03 0.02 0.02 0.01 0.02 0.04 0.05 0.04 0.02 0.01 0.01 0.01 0.00 0.00 0.00 0.00 0.00 0.00 0.01 0.03 0.05 0.08 0.15
0.20 0.29 0.41 0.46 0.46 0.42 0.35 0.26 0.23 0.27 0.26 0.23 0.22 0.19 0.14 0.09 0.02 0.00 0.00 0.02 0.03 0.02 0.01 0.01 0.01 0.01 0.01 0.01 0.02 0.01 0.01 0.00 0.00 0.00 0.00 0.00 0.00 0.00 0.00 0.02 0.07 0.09 0.11
0.20 0.24 0.34 0.48 0.51 0.51 0.49 0.41 0.34 0.34 0.35 0.35 0.32 0.29 0.23 0.15 0.05 0.00 0.00 0.03 0.02 0.02 0.01 0.01 0.00 0.00 0.00 0.00 0.01 0.01 0.00 0.00 0.00 0.00 0.00 0.00 0.00 0.00 0.00 0.00 0.04 0.10 0.11
0.24 0.29 0.37 0.45 0.39 0.41 0.52 0.53 0.49 0.48 0.49 0.48 0.44 0.39 0.29 0.19 0.07 0.01 0.00 0.01 0.01 0.02 0.01 0.00 0.00 0.00 0.00 0.00 0.00 0.00 0.00 0.00 0.00 0.00 0.00 0.00 0.00 0.00 0.00 0.00 0.02 0.03 0.08
0.30 0.34 0.39 0.45 0.50 0.56 0.60 0.61 0.60 0.58 0.60 0.56 0.51 0.46 0.36 0.24 0.10 0.02 0.00 0.00 0.00 0.01 0.01 0.00 0.00 0.00 0.00 0.00 0.00 0.00 0.00 0.00 0.00 0.00 0.00 0.00 0.00 0.00 0.00 0.00 0.01 0.02 0.02
0.33 0.34 0.38 0.45 0.51 0.57 0.65 0.70 0.71 0.67 0.64 0.63 0.55 0.48 0.43 0.32 0.14 0.03 0.01 0.00 0.00 0.00 0.00 0.00 0.00 0.00 0.00 0.00 0.00 0.00 0.00 0.00 0.00 0.00 0.00 0.00 0.00 0.00 0.00 0.00 0.00 0.00 0.01
0.39 0.38 0.37 0.41 0.50 0.57 0.63 0.70 0.79 0.80 0.71 0.69 0.59 0.48 0.44 0.36 0.17 0.03 0.01 0.00 0.00 0.00 0.00 0.00 0.00 0.00 0.00 0.00 0.00 0.00 0.00 0.00 0.00 0.00 0.00 0.00 0.00 0.00 0.00 0.00 0.00 0.00 0.00
0.48 0.43 0.39 0.40 0.48 0.56 0.64 0.62 0.60 0.67 0.58 0.55 0.53 0.43 0.39 0.33 0.19 0.05 0.01 0.00 0.00 0.00 0.00 0.00 0.00 0.00 0.00 0.00 0.00 0.00 0.00 0.00 0.00 0.00 0.00 0.00 0.00 0.00 0.00 0.00 0.00 0.00 0.00
0.56 0.50 0.45 0.41 0.45 0.52 0.59 0.66 0.68 0.61 0.56 0.48 0.44 0.36 0.32 0.28 0.16 0.05 0.01 0.00 0.00 0.00 0.00 0.00 0.00 0.00 0.00 0.00 0.00 0.00 0.00 0.00 0.00 0.00 0.00 0.00 0.00 0.00 0.00 0.00 0.00 0.00 0.00
0.61 0.55 0.50 0.47 0.45 0.48 0.54 0.63 0.74 0.75 0.61 0.51 0.46 0.36 0.27 0.20 0.11 0.04 0.02 0.01 0.00 0.00 0.00 0.00 0.00 0.00 0.00 0.00 0.00 0.00 0.00 0.00 0.00 0.00 0.00 0.00 0.00 0.00 0.00 0.00 0.00 0.00 0.00
0.56 0.52 0.47 0.47 0.48 0.47 0.52 0.59 0.66 0.71 0.64 0.58 0.53 0.41 0.28 0.17 0.09 0.04 0.02 0.01 0.00 0.00 0.00 0.00 0.00 0.00 0.00 0.00 0.00 0.00 0.00 0.00 0.00 0.00 0.00 0.00 0.00 0.00 0.00 0.00 0.00 0.00 0.00
0.54 0.43 0.42 0.44 0.47 0.48 0.52 0.56 0.57 0.60 0.60 0.58 0.52 0.38 0.24 0.14 0.08 0.03 0.01 0.00 0.00 0.00 0.00 0.00 0.00 0.00 0.00 0.00 0.00 0.00 0.00 0.00 0.00 0.00 0.00 0.00 0.00 0.00 0.00 0.00 0.00 0.00 0.00
0.54 0.42 0.35 0.36 0.41 0.46 0.51 0.52 0.51 0.48 0.49 0.46 0.41 0.28 0.14 0.07 0.04 0.02 0.00 0.00 0.00 0.00 0.00 0.00 0.00 0.00 0.00 0.00 0.00 0.00 0.00 0.00 0.00 0.00 0.00 0.00 0.00 0.00 0.00 0.00 0.00 0.00 0.00
0.56 0.45 0.35 0.31 0.36 0.42 0.47 0.49 0.46 0.39 0.37 0.35 0.31 0.22 0.11 0.04 0.03 0.01 0.00 0.00 0.00 0.00 0.00 0.00 0.00 0.00 0.00 0.00 0.00 0.00 0.00 0.00 0.00 0.00 0.00 0.00 0.00 0.00 0.00 0.00 0.00 0.00 0.00
0.59 0.49 0.38 0.32 0.35 0.39 0.40 0.42 0.39 0.32 0.29 0.26 0.21 0.15 0.08 0.04 0.02 0.01 0.00 0.00 0.00 0.00 0.00 0.00 0.00 0.00 0.00 0.00 0.00 0.00 0.00 0.00 0.00 0.00 0.00 0.00 0.00 0.00 0.00 0.00 0.00 0.00 0.00
0.57 0.52 0.39 0.33 0.35 0.37 0.34 0.34 0.30 0.27 0.23 0.18 0.14 0.09 0.05 0.02 0.01 0.01 0.00 0.00 0.00 0.00 0.00 0.00 0.00 0.00 0.00 0.00 0.00 0.00 0.00 0.00 0.00 0.00 0.00 0.00 0.00 0.00 0.00 0.00 0.00 0.00 0.00
0.54 0.54 0.43 0.33 0.31 0.32 0.29 0.26 0.24 0.21 0.16 0.11 0.08 0.05 0.03 0.02 0.01 0.01 0.00 0.00 0.00 0.00 0.00 0.00 0.00 0.00 0.00 0.00 0.00 0.00 0.00 0.00 0.00 0.00 0.00 0.00 0.00 0.00 0.00 0.00 0.00 0.00 0.00
0.51 0.51 0.44 0.32 0.26 0.24 0.22 0.21 0.19 0.14 0.10 0.06 0.04 0.03 0.02 0.02 0.01 0.01 0.00 0.00 0.00 0.00 0.00 0.00 0.00 0.00 0.00 0.00 0.00 0.00 0.00 0.00 0.00 0.00 0.00 0.00 0.00 0.00 0.00 0.00 0.00 0.00 0.00